Location: *
(49.7115°N, 15.0136°E)
Time: 17:45:12
(UTC+00:00)

CZ-4 R/B - Pass Details

Date: 27 February 2020
Orbit: 531 x 599 km, 97.8° (Epoch: 31 March)

Event Time Altitude Azimuth Distance (km) Brightness Sun altitude
Rises 17:40:24 0° 180° (S) 2,823 5.0 -10.8°
Reaches altitude 10° 17:42:38 10° 186° (S) 1,920 4.2 -11.2°
Maximum altitude 17:46:40 46° 261° (W) 789 2.6 -11.8°
Drops below altitude 10° 17:50:39 10° 335° (NNW) 1,903 4.4 -12.5°
Sets 17:52:52 0° 342° (NNW) 2,796 5.2 -12.8°
